[[{"header":{"parameterUnit":"m.s-1","parameterCategory":1,"la1":30.2991,"la2":30.254,"lo1":-89.0895,"lo2":-89.0444,"dy":0.0017,"dx":0.0017,"nx":28,"ny":28,"refTime":"2025-04-27T21:00:00:Z","depth":0,"parameterNumber":2,"parameterNumberName":"U-component_of_WINDS"},"data":[0,0,0,0,0,0,0,0,0,0,0,0,0,0,0,0,0,0,0,0,0,0,0,0,0,0,0,0,0,0,0,0,0,0,0,0,0,0,0,0,0,0,0,0,0,0,0,0,0,0,0,0,0,0,0,0,0,0,-3.6307,-3.6308,0,-3.6389,-3.639,-3.6391,-3.6397,-3.6396,-3.6395,-3.6395,-3.6476,-3.6479,-3.6482,0,0,0,0,0,0,0,0,0,0,0,0,0,-3.6155,-3.6158,-3.6307,-3.6308,-3.6309,-3.6389,-3.639,-3.6391,-3.6397,-3.6396,-3.6395,-3.6394,-3.6475,-3.6479,-3.6482,0,0,0,0,0,0,0,0,0,0,0,0,0,-3.6228,-3.6159,-3.6307,-3.6322,-3.6324,-3.6389,-3.639,-3.6392,-3.6398,-3.6396,-3.6395,-3.6394,-3.6474,-3.6478,-3.6483,-3.6537,0,0,-3.6497,-3.6498,0,0,0,0,0,0,0,0,-3.6223,-3.6233,-3.6319,-3.6321,-3.6324,-3.6382,-3.6367,-3.644,-3.6398,-3.637,-3.6394,-3.6393,-3.6446,-3.6452,-3.6471,-3.6541,-3.6545,-3.6497,-3.65,-3.6502,-3.6503,0,0,0,0,0,0,0,-3.6218,-3.623,-3.6339,-3.632,-3.6323,-3.6324,-3.6333,-3.6381,-3.6414,-3.6372,-3.6373,-3.6382,-3.6447,-3.6466,-3.6473,-3.6546,-3.6497,-3.6501,-3.6504,-3.6505,-3.6668,-3.6669,0,0,0,0,0,0,-3.6211,-3.6225,-3.6337,-3.6342,-3.6269,-3.6328,-3.6338,-3.6364,-3.6414,-3.642,-3.6383,-3.6382,-3.6459,-3.6467,-3.6475,-3.6543,-3.6502,-3.6506,-3.6508,-3.6666,-3.6668,-3.667,0,0,0,0,0,0,-3.6207,-3.6221,-3.6334,-3.6284,-3.6299,-3.6332,-3.6362,-3.6367,-3.6386,-3.6422,-3.6428,-3.6397,-3.6458,-3.6469,-3.6523,-3.6546,-3.6508,-3.6512,-3.6664,-3.6667,-3.6669,-3.6679,0,0,0,0,0,0,-3.6203,-3.6219,-3.624,-3.6284,-3.6301,-3.6379,-3.6363,-3.6369,-3.6394,-3.6394,-3.6437,-3.6443,-3.6458,-3.6516,-3.6527,-3.6552,-3.6515,-3.6662,-3.6665,-3.6668,-3.6676,-3.6681,-3.6685,0,0,0,0,0,-3.6198,-3.6239,-3.6241,-3.6255,-3.6328,-3.6381,-3.639,-3.6408,-3.6396,-3.6417,-3.6441,-3.6441,-3.6542,-3.6521,-3.6534,-3.656,-3.6661,-3.6664,-3.6668,-3.6674,-3.668,-3.6685,0,0,0,0,0,0,-3.6195,-3.6245,-3.6248,-3.6305,-3.6339,-3.6382,-3.6409,-3.6413,-3.645,-3.6448,-3.6468,-3.6478,-3.6531,-3.6551,-3.6527,-3.6617,-3.66,-3.6607,-3.6601,-3.6607,-3.6611,-3.6604,-3.6519,0,0,0,0,0,-3.6202,-3.6241,-3.6282,-3.6328,-3.6345,-3.6374,-3.6398,-3.6409,-3.6444,-3.6458,-3.6486,-3.6519,-3.6559,-3.6584,-3.6623,-3.6681,-3.669,-3.6705,-3.671,-3.6713,-3.6718,-3.6751,-3.6758,-3.6682,-3.6682,-3.6682,0,0,-3.6214,-3.6246,-3.6269,-3.6328,-3.6356,-3.6396,-3.6386,-3.6428,-3.6458,-3.6464,-3.6516,-3.6538,-3.6578,-3.6634,-3.666,-3.6652,-3.6742,-3.6718,-3.672,-3.6723,-3.6755,-3.6762,-3.6769,-3.6684,-3.6684,-3.6683,0,0,-3.6258,-3.6286,-3.6328,-3.6357,-3.6399,-3.6419,-3.6429,-3.6472,-3.6487,-3.6541,-3.6547,-3.6583,-3.665,-3.6679,-3.6702,-3.676,-3.6761,-3.6772,-3.6794,-3.6826,-3.6832,-3.6837,-3.6858,-3.6865,-3.6777,-3.6777,-3.6777,0,-3.6268,-3.6328,-3.6349,-3.6392,-3.6418,-3.6428,-3.6471,-3.6497,-3.655,-3.6567,-3.6559,-3.6646,-3.6673,-3.6736,-3.675,-3.6769,-3.6781,-3.6765,-3.683,-3.6835,-3.6841,-3.686,-3.6868,-3.6778,-3.6778,-3.6778,-3.6777,0,-3.6339,-3.6381,-3.641,-3.6462,-3.6491,-3.6534,-3.6561,-3.6589,-3.6599,-3.6619,-3.6674,-3.6708,-3.6754,-3.677,-3.6779,-3.6836,-3.683,-3.6826,-3.6809,-3.6848,-3.6867,-3.6875,-3.6779,-3.6779,-3.6778,-3.6778,0,0,-3.6379,-3.6445,-3.6455,-3.6479,-3.6528,-3.6561,-3.6605,-3.6651,-3.6675,-3.6712,-3.6749,-3.6807,-3.6804,-3.6831,-3.6844,-3.6872,-3.6916,-3.6865,-3.6866,-3.6872,-3.698,-3.6982,-3.699,-3.6919,-3.692,-3.6922,-3.6977,0,-3.6427,-3.6506,-3.6527,-3.6593,-3.6633,-3.6645,-3.6684,-3.6718,-3.674,-3.6776,-3.68,-3.6841,-3.6834,-3.685,-3.6879,-3.6905,-3.6938,-3.6901,-3.6953,-3.6954,-3.694,-3.7,-3.7002,-3.7052,-3.6984,-3.6986,-3.6987,0,-3.6493,-3.6533,-3.6603,-3.6649,-3.6667,-3.6701,-3.6746,-3.6781,-3.6821,-3.6835,-3.6866,-3.6877,-3.6924,-3.6907,-3.6972,-3.6946,-3.6969,-3.6985,-3.6988,-3.6991,-3.6971,-3.7004,-3.7068,-3.7075,-3.6998,-3.6997,-3.6997,0,-3.6514,-3.6586,-3.6638,-3.6658,-3.6713,-3.6737,-3.6761,-3.68,-3.6827,-3.6867,-3.6885,-3.693,-3.6953,-3.6988,-3.7011,-3.6997,-3.7074,-3.7058,-3.7086,-3.7085,-3.7099,-3.7097,-3.7166,-3.7117,-3.7117,-3.7117,-3.7116,0,-3.6565,-3.6607,-3.6648,-3.668,-3.6728,-3.6754,-3.6801,-3.6826,-3.6861,-3.6897,-3.6911,-3.6945,-3.6975,-3.7013,-3.7032,-3.7082,-3.7093,-3.7105,-3.7109,-3.7103,-3.7102,-3.7117,-3.7113,-3.7119,-3.7118,-3.7118,-3.7117,0,-3.6596,-3.6625,-3.6682,-3.6731,-3.6745,-3.6778,-3.682,-3.6851,-3.6875,-3.6921,-3.6933,-3.697,-3.7016,-3.7044,-3.7101,-3.7114,-3.717,-3.7173,-3.7156,-3.7158,-3.7183,-3.718,-3.7263,-3.7275,-3.7218,-3.7219,-3.7219,0,-3.6625,-3.6658,-3.6711,-3.6738,-3.6762,-3.6804,-3.6833,-3.686,-3.6889,-3.6939,-3.6964,-3.7012,-3.7051,-3.7124,-3.7155,-3.72,-3.7204,-3.723,-3.721,-3.7203,-3.7203,-3.72,-3.7204,-3.7232,-3.7233,-3.7233,-3.7233,0,-3.6673,-3.6687,-3.6728,-3.6775,-3.6809,-3.6846,-3.6884,-3.6904,-3.6938,-3.697,-3.7018,-3.7049,-3.711,-3.7156,-3.7204,-3.7229,-3.7237,-3.724,-3.7249,-3.7241,-3.723,-3.7236,-3.7164,-3.7237,-3.7237,-3.7237,-3.7236,-3.7236,-3.6704,-3.6734,-3.6777,-3.6822,-3.6854,-3.689,-3.6922,-3.6951,-3.6992,-3.7043,-3.7058,-3.7108,-3.7149,-3.7215,-3.7241,-3.7281,-3.7277,-3.7289,-3.7292,-3.7294,-3.7295,-3.7225,-3.729,-3.729,-3.729,-3.729,-3.729,0,-3.6752,-3.6781,-3.6823,-3.6876,-3.6912,-3.6919,-3.6962,-3.6991,-3.7035,-3.7074,-3.7113,-3.7169,-3.7215,-3.7252,-3.73,-3.7325,-3.7329,-3.7336,-3.7333,-3.7339,-3.7296,-3.7283,-3.7331,-3.7331,-3.7331,-3.7331,-3.7331,-3.7331,-3.6781,-3.6834,-3.6853,-3.6922,-3.695,-3.7001,-3.7024,-3.7058,-3.7089,-3.7151,-3.719,-3.7214,-3.7252,-3.7303,-3.7346,-3.7356,-3.7372,-3.7378,-3.7388,-3.7347,-3.7342,-3.7338,-3.7326,-3.7382,-3.7382,-3.7427,-3.7428,-3.7428]},{"header":{"parameterUnit":"m.s-1","parameterCategory":1,"la1":30.2991,"la2":30.254,"lo1":-89.0895,"lo2":-89.0444,"dy":0.0017,"dx":0.0017,"nx":28,"ny":28,"refTime":"2025-04-27T21:00:00:Z","depth":0,"parameterNumber":3,"parameterNumberName":"V-component_of_WINDS"},"data":[0,0,0,0,0,0,0,0,0,0,0,0,0,0,0,0,0,0,0,0,0,0,0,0,0,0,0,0,0,0,0,0,0,0,0,0,0,0,0,0,0,0,0,0,0,0,0,0,0,0,0,0,0,0,0,0,0,0,2.3334,2.3334,0,2.337,2.3371,2.3371,2.3434,2.3435,2.3436,2.3437,2.3469,2.3468,2.3468,0,0,0,0,0,0,0,0,0,0,0,0,0,2.3315,2.3315,2.3334,2.3334,2.3335,2.337,2.3371,2.3371,2.3434,2.3435,2.3436,2.3438,2.3469,2.3468,2.3468,0,0,0,0,0,0,0,0,0,0,0,0,0,2.3334,2.3315,2.3334,2.337,2.3374,2.337,2.3371,2.3371,2.3433,2.3435,2.3437,2.3438,2.3469,2.3468,2.3468,2.343,0,0,2.3467,2.3467,0,0,0,0,0,0,0,0,2.3333,2.3335,2.3365,2.3368,2.3372,2.34,2.3376,2.3391,2.3433,2.3411,2.3437,2.3439,2.3444,2.3446,2.3448,2.3431,2.3432,2.3467,2.3466,2.3466,2.3466,0,0,0,0,0,0,0,2.3331,2.3333,2.3348,2.3365,2.3369,2.3384,2.3388,2.3379,2.3416,2.3413,2.3417,2.3421,2.3446,2.3448,2.3449,2.3433,2.3467,2.3466,2.3466,2.3466,2.3388,2.3386,0,0,0,0,0,0,2.3325,2.3332,2.3347,2.3349,2.3357,2.3383,2.3388,2.3389,2.3417,2.3423,2.3419,2.3424,2.3448,2.345,2.3451,2.3409,2.3466,2.3466,2.3466,2.339,2.3388,2.3386,0,0,0,0,0,0,2.3325,2.3326,2.3346,2.3342,2.3346,2.3381,2.3381,2.3388,2.3391,2.3422,2.3429,2.3415,2.345,2.3451,2.3435,2.3411,2.3466,2.3465,2.3392,2.3389,2.3387,2.3324,0,0,0,0,0,0,2.3324,2.3325,2.3312,2.3341,2.3345,2.333,2.338,2.3388,2.3391,2.3397,2.342,2.3425,2.3451,2.3436,2.3435,2.3411,2.3465,2.3394,2.3391,2.3388,2.3329,2.332,2.3312,0,0,0,0,0,2.3323,2.3291,2.3311,2.3312,2.333,2.3329,2.3331,2.3363,2.3389,2.3375,2.3395,2.3425,2.3414,2.3433,2.3433,2.3409,2.3396,2.3392,2.3388,2.3332,2.3321,2.3312,0,0,0,0,0,0,2.3255,2.3295,2.3318,2.3295,2.3308,2.3339,2.3323,2.335,2.3355,2.336,2.3399,2.3403,2.3382,2.3394,2.3415,2.3374,2.341,2.3405,2.3367,2.3357,2.3349,2.3347,2.3465,0,0,0,0,0,2.3238,2.3236,2.327,2.3247,2.3253,2.3287,2.3287,2.3312,2.3326,2.3331,2.335,2.3362,2.3362,2.336,2.3361,2.3331,2.3337,2.3314,2.3306,2.3299,2.3295,2.3281,2.3271,2.3372,2.3372,2.3372,0,0,2.3201,2.3223,2.3219,2.3234,2.3247,2.3243,2.3291,2.3283,2.3281,2.333,2.3317,2.3331,2.3346,2.3324,2.3314,2.3333,2.3269,2.3294,2.3288,2.3288,2.3276,2.3266,2.3258,2.337,2.337,2.337,0,0,2.3133,2.3149,2.3133,2.3146,2.3166,2.319,2.3185,2.3213,2.3226,2.3214,2.3251,2.3247,2.3245,2.3256,2.326,2.3199,2.3226,2.3198,2.3154,2.314,2.3133,2.3126,2.3104,2.3096,2.3194,2.3193,2.3193,0,2.3085,2.3082,2.312,2.3111,2.3117,2.3164,2.3147,2.3157,2.3176,2.3178,2.3199,2.3199,2.3213,2.3194,2.3179,2.3181,2.3178,2.3195,2.3131,2.3124,2.3119,2.3099,2.309,2.319,2.319,2.3191,2.3191,0,2.3021,2.3019,2.3002,2.3023,2.3026,2.3013,2.3048,2.3047,2.3072,2.3093,2.308,2.3099,2.3105,2.3103,2.3125,2.3087,2.3098,2.3124,2.316,2.3105,2.3087,2.3079,2.3185,2.3186,2.3187,2.3188,0,0,2.2909,2.2953,2.2947,2.2957,2.2985,2.2983,2.2972,2.2981,2.298,2.2991,2.2983,2.2982,2.3008,2.3013,2.3037,2.3025,2.2976,2.3053,2.3054,2.3038,2.2937,2.2917,2.2907,2.2995,2.2994,2.2993,2.2936,0,2.2847,2.2833,2.2868,2.2845,2.2844,2.289,2.2881,2.2896,2.2916,2.2916,2.2937,2.2936,2.2969,2.2973,2.2963,2.2984,2.2956,2.2989,2.2987,2.2987,2.2982,2.2898,2.2876,2.2821,2.2929,2.2928,2.2927,0,2.2772,2.2783,2.2761,2.2792,2.2792,2.2784,2.2796,2.2796,2.2814,2.283,2.2837,2.2867,2.2858,2.2893,2.2882,2.2903,2.2905,2.2915,2.2914,2.2914,2.2953,2.2896,2.2805,2.2796,2.2916,2.2917,2.2917,0,2.2693,2.2703,2.2691,2.2699,2.2734,2.2727,2.2741,2.2762,2.2766,2.2776,2.2779,2.2787,2.2791,2.2796,2.2827,2.2849,2.2811,2.2849,2.2823,2.2822,2.2812,2.2812,2.2719,2.2813,2.2813,2.2813,2.2814,0,2.262,2.2604,2.2657,2.2649,2.2634,2.2674,2.2657,2.2676,2.2694,2.2691,2.273,2.2726,2.2767,2.2767,2.279,2.2778,2.2779,2.279,2.2797,2.2787,2.2786,2.2788,2.2793,2.2811,2.2812,2.2812,2.2813,0,2.2529,2.2563,2.2554,2.259,2.2599,2.2586,2.2616,2.261,2.2633,2.2629,2.263,2.2665,2.2668,2.27,2.2707,2.2724,2.2701,2.2715,2.2695,2.27,2.2673,2.2675,2.2578,2.2567,2.2667,2.2666,2.2665,0,2.248,2.2469,2.2505,2.2507,2.2521,2.2522,2.2528,2.2567,2.2571,2.2592,2.2584,2.259,2.2597,2.2598,2.2624,2.2631,2.2645,2.2611,2.2646,2.2637,2.2645,2.2645,2.2645,2.2603,2.2601,2.26,2.2599,0,2.2389,2.2407,2.2414,2.2428,2.2434,2.2445,2.246,2.2458,2.2502,2.2504,2.2508,2.2514,2.2524,2.2529,2.2541,2.2555,2.2584,2.2589,2.2583,2.2573,2.2562,2.2568,2.2675,2.259,2.2591,2.2592,2.2592,2.2593,2.2318,2.2312,2.2337,2.2344,2.2359,2.2372,2.237,2.2394,2.2399,2.2412,2.2435,2.2436,2.2456,2.2476,2.2487,2.2487,2.2505,2.2496,2.2494,2.2492,2.2487,2.2563,2.2489,2.249,2.249,2.249,2.249,0,2.223,2.2249,2.2255,2.2276,2.2281,2.2311,2.2329,2.2331,2.2332,2.235,2.2357,2.2362,2.2368,2.2396,2.2405,2.24,2.2414,2.2401,2.2401,2.2404,2.247,2.2474,2.239,2.239,2.239,2.239,2.239,2.239,2.2185,2.2177,2.2198,2.2198,2.2217,2.2221,2.2228,2.224,2.2255,2.226,2.2266,2.2285,2.2307,2.2318,2.2325,2.2333,2.2334,2.2317,2.2329,2.239,2.2399,2.2409,2.2413,2.2317,2.2316,2.2263,2.2263,2.2262]}]]